Zurück zum Katalog

STARLINK-31883

AktivKommunikationVLEO
NORAD 60020·PAYLOAD·🇺🇸 United States

Gestartet Jun 8, 2024 von Cape Canaveral Space Force Station

Loading…

Nächste Überflüge (nächste 24 Stunden)

TLE

AktuellSource: CelesTrak SupGP

Epoche: Sep 14, 2026, 14:51 UTC

1 60020C 24111E   26257.61923611 -.00002134  00000+0 -63066-4 0  2571
2 60020  53.1583 277.4283 0001258  78.8175  97.0594 15.34384133    10

Verfolge STARLINK-31883 in Echtzeit mit AllMySat

Download on the App Store